| time (UTC) | temp F | wind direction | speed MPH | gust MPH | rain 1hr in | rain 24hr in | rain mn in | humidity % | barometer mb |
| 20260504173006 | 70 | 327 | 2.0 | 4.0 | 0.00 | 0.00 | 0.00 | 38 | 1010.5 |
| 20260504172506 | 69 | 308 | 2.0 | 3.0 | 0.00 | 0.00 | 0.00 | 39 | 1010.5 |
| 20260504172000 | 69 | 317 | 2.0 | 4.0 | 0.00 | 0.00 | 0.00 | 39 | 1010.5 |
| 20260504171501 | 69 | 312 | 2.0 | 4.0 | 0.00 | 0.00 | 0.00 | 39 | 1010.5 |
| 20260504171000 | 68 | 43 | 1.0 | 2.0 | 0.00 | 0.00 | 0.00 | 41 | 1010.5 |
| 20260504170512 | 67 | 320 | 2.0 | 3.0 | 0.00 | 0.00 | 0.00 | 41 | 1010.5 |
| 20260504151011 | 56 | 344 | 1.0 | 2.0 | 0.00 | 0.00 | 0.00 | 70 | 1011.2 |
| 20260504150502 | 55 | 260 | 1.0 | 1.0 | 0.00 | 0.00 | 0.00 | 72 | 1011.2 |
| 20260504141001 | 48 | 128 | 0.0 | 0.0 | 0.00 | 0.00 | 0.00 | 88 | 1010.9 |
| 20260504140501 | 47 | 132 | 0.0 | 1.0 | 0.00 | 0.00 | 0.00 | 89 | 1010.9 |
| 20260504130501 | 45 | 97 | 0.0 | 0.0 | 0.00 | 0.00 | 0.00 | 90 | 1010.5 |
| 20260504110501 | 48 | 313 | 0.0 | 0.0 | 0.00 | 0.00 | 0.00 | 85 | 1010.2 |
| 20260504100511 | 49 | 30 | 0.0 | 0.0 | 0.00 | 0.00 | 0.00 | 82 | 1009.8 |
| 20260504081510 | 54 | 4 | 0.0 | 0.0 | 0.00 | 0.00 | 0.00 | 75 | 1009.8 |
| 20260504081006 | 54 | 4 | 0.0 | 0.0 | 0.00 | 0.00 | 0.00 | 74 | 1009.8 |
| 20260504080507 | 54 | 4 | 0.0 | 0.0 | 0.00 | 0.00 | 0.00 | 73 | 1009.8 |
| 20260504050502 | 63 | 50 | 0.0 | 0.0 | 0.00 | 0.00 | 0.00 | 55 | 1009.5 |
| 20260504050006 | 64 | 50 | 0.0 | 0.0 | 0.00 | 0.00 | 0.00 | 52 | 1009.5 |
| 20260504045501 | 64 | 50 | 0.0 | 0.0 | 0.00 | 0.00 | 0.00 | 52 | 1009.5 |
| 20260504045007 | 65 | 50 | 0.0 | 1.0 | 0.00 | 0.00 | 0.00 | 51 | 1009.5 |
| 20260504044501 | 65 | 51 | 1.0 | 2.0 | 0.00 | 0.00 | 0.00 | 50 | 1009.5 |
| 20260504044001 | 65 | 54 | 0.0 | 2.0 | 0.00 | 0.00 | 0.00 | 50 | 1009.5 |
| 20260504043500 | 66 | 134 | 0.0 | 0.0 | 0.00 | 0.00 | 0.00 | 48 | 1009.5 |
| 20260504043004 | 66 | 133 | 0.0 | 1.0 | 0.00 | 0.00 | 0.00 | 47 | 1009.5 |
| 20260504042001 | 67 | 199 | 0.0 | 0.0 | 0.00 | 0.00 | 0.00 | 47 | 1009.5 |
| 20260504041502 | 67 | 199 | 0.0 | 0.0 | 0.00 | 0.00 | 0.00 | 45 | 1009.5 |
| 20260504041001 | 67 | 199 | 0.0 | 0.0 | 0.00 | 0.00 | 0.00 | 45 | 1009.5 |
| 20260504040501 | 67 | 199 | 0.0 | 0.0 | 0.00 | 0.00 | 0.00 | 45 | 1009.3 |
| 20260504040001 | 68 | 203 | 0.0 | 1.0 | 0.00 | 0.00 | 0.00 | 45 | 1009.2 |
| 20260504035502 | 68 | 200 | 0.0 | 1.0 | 0.00 | 0.00 | 0.00 | 46 | 1009.1 |
| 20260504035006 | 69 | 209 | 0.0 | 1.0 | 0.00 | 0.00 | 0.00 | 44 | 1009.1 |
| 20260504034501 | 69 | 222 | 0.0 | 1.0 | 0.00 | 0.00 | 0.00 | 43 | 1009.1 |
| 20260504034001 | 70 | 221 | 0.0 | 0.0 | 0.00 | 0.00 | 0.00 | 41 | 1009.1 |
| 20260504033501 | 70 | 223 | 0.0 | 0.0 | 0.00 | 0.00 | 0.00 | 40 | 1009.1 |
| 20260504033001 | 71 | 221 | 0.0 | 0.0 | 0.00 | 0.00 | 0.00 | 40 | 1009.1 |
| 20260504032501 | 71 | 221 | 0.0 | 1.0 | 0.00 | 0.00 | 0.00 | 38 | 1009.1 |
| 20260504032007 | 72 | 222 | 0.0 | 1.0 | 0.00 | 0.00 | 0.00 | 40 | 1009.1 |
| 20260504031506 | 73 | 218 | 1.0 | 1.0 | 0.00 | 0.00 | 0.00 | 38 | 1009.1 |
| 20260504031008 | 74 | 249 | 0.0 | 1.0 | 0.00 | 0.00 | 0.00 | 35 | 1009.0 |
| 20260504030508 | 75 | 251 | 0.0 | 0.0 | 0.00 | 0.00 | 0.00 | 34 | 1009.0 |
| 20260504030006 | 75 | 251 | 0.0 | 0.0 | 0.00 | 0.00 | 0.00 | 33 | 1008.9 |
| 20260504025502 | 76 | 251 | 0.0 | 0.0 | 0.00 | 0.00 | 0.00 | 33 | 1008.8 |
| 20260504025008 | 77 | 253 | 0.0 | 0.0 | 0.00 | 0.00 | 0.00 | 32 | 1008.8 |
| 20260504024501 | 78 | 254 | 0.0 | 0.0 | 0.00 | 0.00 | 0.00 | 30 | 1008.8 |
| 20260504023502 | 80 | 257 | 0.0 | 1.0 | 0.00 | 0.00 | 0.00 | 27 | 1008.8 |
| 20260504023001 | 80 | 258 | 2.0 | 2.0 | 0.00 | 0.00 | 0.00 | 25 | 1008.8 |
| 20260504022502 | 80 | 250 | 1.0 | 2.0 | 0.00 | 0.00 | 0.00 | 25 | 1008.8 |
| 20260504022006 | 80 | 258 | 1.0 | 2.0 | 0.00 | 0.00 | 0.00 | 25 | 1008.8 |
| 20260504021507 | 81 | 271 | 2.0 | 4.0 | 0.00 | 0.00 | 0.00 | 24 | 1009.1 |
| 20260504021002 | 81 | 263 | 2.0 | 3.0 | 0.00 | 0.00 | 0.00 | 24 | 1009.1 |
| 20260504020501 | 81 | 268 | 1.0 | 2.0 | 0.00 | 0.00 | 0.00 | 24 | 1009.1 |
| 20260504020002 | 81 | 297 | 2.0 | 5.0 | 0.00 | 0.00 | 0.00 | 23 | 1009.1 |
| 20260504015501 | 81 | 284 | 2.0 | 5.0 | 0.00 | 0.00 | 0.00 | 23 | 1009.1 |
| 20260504015007 | 82 | 267 | 2.0 | 4.0 | 0.00 | 0.00 | 0.00 | 23 | 1009.1 |
| 20260504014504 | 82 | 291 | 2.0 | 5.0 | 0.00 | 0.00 | 0.00 | 23 | 1009.1 |
| 20260504014002 | 82 | 270 | 2.0 | 3.0 | 0.00 | 0.00 | 0.00 | 23 | 1009.2 |
| 20260504013500 | 82 | 242 | 2.0 | 3.0 | 0.00 | 0.00 | 0.00 | 23 | 1009.5 |
| 20260504013001 | 82 | 294 | 2.0 | 5.0 | 0.00 | 0.00 | 0.00 | 23 | 1009.5 |
| 20260504012506 | 82 | 311 | 2.0 | 4.0 | 0.00 | 0.00 | 0.00 | 23 | 1009.5 |
| 20260504012001 | 82 | 283 | 2.0 | 5.0 | 0.00 | 0.00 | 0.00 | 23 | 1009.5 |
| 20260504011501 | 82 | 274 | 2.0 | 4.0 | 0.00 | 0.00 | 0.00 | 22 | 1009.5 |
| 20260504011002 | 82 | 278 | 3.0 | 5.0 | 0.00 | 0.00 | 0.00 | 22 | 1009.5 |
| 20260504010500 | 82 | 245 | 3.0 | 5.0 | 0.00 | 0.00 | 0.00 | 22 | 1009.5 |
| 20260504010001 | 83 | 283 | 3.0 | 7.0 | 0.00 | 0.00 | 0.00 | 22 | 1009.5 |
| 20260504005500 | 83 | 259 | 1.0 | 3.0 | 0.00 | 0.00 | 0.00 | 22 | 1009.7 |
| 20260504005001 | 82 | 296 | 2.0 | 4.0 | 0.00 | 0.00 | 0.00 | 22 | 1009.8 |
| 20260504004506 | 82 | 282 | 4.0 | 6.0 | 0.00 | 0.00 | 0.00 | 22 | 1009.8 |
| 20260504004006 | 82 | 274 | 4.0 | 8.0 | 0.00 | 0.00 | 0.00 | 22 | 1009.8 |
| 20260504003501 | 83 | 296 | 3.0 | 5.0 | 0.00 | 0.00 | 0.00 | 22 | 1009.8 |
| 20260504003001 | 83 | 280 | 4.0 | 7.0 | 0.00 | 0.00 | 0.00 | 21 | 1009.8 |
| 20260504002506 | 83 | 229 | 1.0 | 2.0 | 0.00 | 0.00 | 0.00 | 21 | 1009.8 |
| 20260504002010 | 83 | 161 | 2.0 | 5.0 | 0.00 | 0.00 | 0.00 | 21 | 1009.8 |
| 20260504001502 | 83 | 202 | 3.0 | 5.0 | 0.00 | 0.00 | 0.00 | 21 | 1010.1 |
| 20260504001007 | 84 | 213 | 2.0 | 5.0 | 0.00 | 0.00 | 0.00 | 21 | 1010.2 |
| 20260504000506 | 83 | 265 | 3.0 | 6.0 | 0.00 | 0.00 | 0.00 | 21 | 1010.2 |
| 20260504000001 | 84 | 256 | 3.0 | 6.0 | 0.00 | 0.00 | 0.00 | 20 | 1010.2 |
| 20260503235506 | 85 | 263 | 3.0 | 5.0 | 0.00 | 0.00 | 0.00 | 20 | 1010.2 |
| 20260503235000 | 85 | 215 | 2.0 | 4.0 | 0.00 | 0.00 | 0.00 | 20 | 1010.2 |
| 20260503234502 | 85 | 231 | 2.0 | 4.0 | 0.00 | 0.00 | 0.00 | 20 | 1010.2 |
| 20260503234006 | 85 | 262 | 1.0 | 4.0 | 0.00 | 0.00 | 0.00 | 20 | 1010.4 |
| 20260503233500 | 84 | 311 | 3.0 | 5.0 | 0.00 | 0.00 | 0.00 | 20 | 1010.5 |
| 20260503233001 | 84 | 111 | 2.0 | 4.0 | 0.00 | 0.00 | 0.00 | 20 | 1010.5 |
| 20260503232506 | 83 | 248 | 2.0 | 6.0 | 0.00 | 0.00 | 0.00 | 20 | 1010.5 |
| 20260503232001 | 84 | 263 | 2.0 | 7.0 | 0.00 | 0.00 | 0.00 | 21 | 1010.5 |
| 20260503231501 | 83 | 235 | 3.0 | 7.0 | 0.00 | 0.00 | 0.00 | 21 | 1010.5 |
| 20260503231002 | 84 | 251 | 3.0 | 7.0 | 0.00 | 0.00 | 0.00 | 20 | 1010.8 |
| 20260503230501 | 84 | 255 | 3.0 | 6.0 | 0.00 | 0.00 | 0.00 | 21 | 1010.8 |
| 20260503230009 | 84 | 274 | 3.0 | 5.0 | 0.00 | 0.00 | 0.00 | 20 | 1010.8 |
| 20260503225502 | 84 | 199 | 2.0 | 5.0 | 0.00 | 0.00 | 0.00 | 20 | 1010.8 |
| 20260503225001 | 83 | 104 | 2.0 | 4.0 | 0.00 | 0.00 | 0.00 | 20 | 1010.8 |
| 20260503224506 | 83 | 306 | 3.0 | 7.0 | 0.00 | 0.00 | 0.00 | 20 | 1011.1 |
| 20260503224001 | 84 | 313 | 4.0 | 7.0 | 0.00 | 0.00 | 0.00 | 20 | 1011.2 |
| 20260503223505 | 83 | 43 | 2.0 | 3.0 | 0.00 | 0.00 | 0.00 | 21 | 1011.2 |
| 20260503223001 | 83 | 331 | 3.0 | 6.0 | 0.00 | 0.00 | 0.00 | 19 | 1011.2 |
| 20260503222501 | 84 | 331 | 4.0 | 7.0 | 0.00 | 0.00 | 0.00 | 19 | 1011.2 |
| 20260503222024 | 85 | 358 | 2.0 | 3.0 | 0.00 | 0.00 | 0.00 | 18 | 1011.2 |
| 20260503221501 | 85 | 256 | 2.0 | 3.0 | 0.00 | 0.00 | 0.00 | 19 | 1011.3 |
| 20260503221001 | 85 | 97 | 2.0 | 4.0 | 0.00 | 0.00 | 0.00 | 19 | 1011.5 |
| 20260503220507 | 84 | 33 | 1.0 | 2.0 | 0.00 | 0.00 | 0.00 | 19 | 1011.5 |
| 20260503220018 | 83 | 193 | 3.0 | 5.0 | 0.00 | 0.00 | 0.00 | 19 | 1011.5 |
| 20260503215511 | 83 | 203 | 3.0 | 6.0 | 0.00 | 0.00 | 0.00 | 19 | 1011.7 |
| 20260503215001 | 83 | 189 | 3.0 | 7.0 | 0.00 | 0.00 | 0.00 | 19 | 1011.9 |
| 20260503214505 | 82 | 249 | 3.0 | 5.0 | 0.00 | 0.00 | 0.00 | 19 | 1011.9 |
| 20260503214011 | 83 | 293 | 3.0 | 6.0 | 0.00 | 0.00 | 0.00 | 18 | 1011.9 |
| 20260503213506 | 83 | 269 | 3.0 | 7.0 | 0.00 | 0.00 | 0.00 | 19 | 1012.0 |
| 20260503213001 | 83 | 315 | 2.0 | 5.0 | 0.00 | 0.00 | 0.00 | 20 | 1012.2 |
| 20260503212501 | 82 | 307 | 3.0 | 7.0 | 0.00 | 0.00 | 0.00 | 20 | 1012.2 |
| 20260503212018 | 83 | 248 | 3.0 | 5.0 | 0.00 | 0.00 | 0.00 | 22 | 1012.2 |
| 20260503211517 | 82 | 227 | 2.0 | 4.0 | 0.00 | 0.00 | 0.00 | 22 | 1012.2 |
| 20260503211002 | 82 | 275 | 2.0 | 5.0 | 0.00 | 0.00 | 0.00 | 22 | 1012.4 |
| 20260503210507 | 82 | 236 | 2.0 | 5.0 | 0.00 | 0.00 | 0.00 | 22 | 1012.5 |
| 20260503210001 | 82 | 197 | 2.0 | 4.0 | 0.00 | 0.00 | 0.00 | 22 | 1012.5 |
| 20260503205505 | 82 | 248 | 2.0 | 4.0 | 0.00 | 0.00 | 0.00 | 23 | 1012.6 |
| 20260503205002 | 81 | 213 | 2.0 | 4.0 | 0.00 | 0.00 | 0.00 | 24 | 1012.9 |
| 20260503204506 | 81 | 207 | 2.0 | 5.0 | 0.00 | 0.00 | 0.00 | 24 | 1012.9 |
| 20260503204000 | 81 | 294 | 3.0 | 6.0 | 0.00 | 0.00 | 0.00 | 24 | 1012.9 |
| 20260503203506 | 80 | 225 | 3.0 | 6.0 | 0.00 | 0.00 | 0.00 | 25 | 1012.9 |
| 20260503203006 | 80 | 301 | 4.0 | 7.0 | 0.00 | 0.00 | 0.00 | 24 | 1012.9 |
| 20260503202508 | 82 | 243 | 3.0 | 5.0 | 0.00 | 0.00 | 0.00 | 24 | 1013.2 |
| 20260503202001 | 80 | 49 | 2.0 | 3.0 | 0.00 | 0.00 | 0.00 | 25 | 1013.2 |
| 20260503201002 | 80 | 127 | 3.0 | 5.0 | 0.00 | 0.00 | 0.00 | 24 | 1013.2 |
| 20260503200501 | 80 | 185 | 2.0 | 4.0 | 0.00 | 0.00 | 0.00 | 25 | 1013.3 |
| 20260503195518 | 79 | 289 | 3.0 | 5.0 | 0.00 | 0.00 | 0.00 | 24 | 1013.5 |
| 20260503195002 | 80 | 274 | 3.0 | 5.0 | 0.00 | 0.00 | 0.00 | 25 | 1013.5 |
| 20260503194501 | 80 | 213 | 3.0 | 4.0 | 0.00 | 0.00 | 0.00 | 25 | 1013.5 |
| 20260503194002 | 80 | 152 | 3.0 | 5.0 | 0.00 | 0.00 | 0.00 | 24 | 1013.5 |
| 20260503193505 | 80 | 169 | 2.0 | 4.0 | 0.00 | 0.00 | 0.00 | 25 | 1013.8 |
| 20260503193006 | 80 | 5 | 2.0 | 3.0 | 0.00 | 0.00 | 0.00 | 25 | 1013.9 |
| 20260503192501 | 78 | 263 | 2.0 | 4.0 | 0.00 | 0.00 | 0.00 | 26 | 1013.9 |
| 20260503192007 | 77 | 240 | 2.0 | 4.0 | 0.00 | 0.00 | 0.00 | 26 | 1013.9 |
| 20260503191507 | 77 | 347 | 2.0 | 4.0 | 0.00 | 0.00 | 0.00 | 27 | 1013.9 |
| 20260503191001 | 76 | 351 | 2.0 | 5.0 | 0.00 | 0.00 | 0.00 | 28 | 1014.2 |
| 20260503190502 | 77 | 307 | 3.0 | 7.0 | 0.00 | 0.00 | 0.00 | 27 | 1014.2 |
| 20260503190001 | 78 | 282 | 3.0 | 5.0 | 0.00 | 0.00 | 0.00 | 28 | 1014.2 |
| 20260503185001 | 77 | 73 | 2.0 | 4.0 | 0.00 | 0.00 | 0.00 | 29 | 1014.2 |
| 20260503184509 | 76 | 98 | 2.0 | 4.0 | 0.00 | 0.00 | 0.00 | 28 | 1014.2 |
| 20260503184000 | 76 | 349 | 3.0 | 5.0 | 0.00 | 0.00 | 0.00 | 29 | 1014.2 |
| 20260503183502 | 76 | 294 | 2.0 | 4.0 | 0.00 | 0.00 | 0.00 | 28 | 1014.3 |
| 20260503183012 | 76 | 56 | 2.0 | 3.0 | 0.00 | 0.00 | 0.00 | 28 | 1014.5 |
| 20260503182502 | 76 | 34 | 2.0 | 4.0 | 0.00 | 0.00 | 0.00 | 29 | 1014.6 |
| 20260503182001 | 75 | 240 | 1.0 | 3.0 | 0.00 | 0.00 | 0.00 | 30 | 1014.6 |
| 20260503181501 | 75 | 173 | 2.0 | 4.0 | 0.00 | 0.00 | 0.00 | 30 | 1014.6 |
| 20260503181001 | 74 | 5 | 2.0 | 4.0 | 0.00 | 0.00 | 0.00 | 30 | 1014.6 |
| 20260503180501 | 75 | 49 | 2.0 | 4.0 | 0.00 | 0.00 | 0.00 | 30 | 1014.6 |
| 20260503180006 | 74 | 109 | 2.0 | 3.0 | 0.00 | 0.00 | 0.00 | 30 | 1014.7 |
| 20260503175506 | 73 | 213 | 2.0 | 4.0 | 0.00 | 0.00 | 0.00 | 30 | 1014.9 |
| 20260503174508 | 72 | 238 | 2.0 | 4.0 | 0.00 | 0.00 | 0.00 | 32 | 1014.9 |
| 20260503174001 | 71 | 359 | 1.0 | 2.0 | 0.00 | 0.00 | 0.00 | 34 | 1014.9 |
| 20260503173512 | 71 | 47 | 2.0 | 4.0 | 0.00 | 0.00 | 0.00 | 35 | 1015.1 |